Calldetenes (Osona)





Hora UTC 07:45
Temperatura 20.5 ºC
Humitat 86.0 %
Pressió 1006.8 hPa
Pluja 2.8 mm
Velocitat vent 0.0 km/h
Direcció vent

Dades diàries 2024-07-21



Hora UTC (hivern +1h; estiu +2h)
Temperatura (ºC) Humitat (%) Pressió (hPa) Velocitat vent (km/h) Precipitació (mm)
Hora UTC Aire Humitat Pressió Vel. Dir. Vel. Max Dir. Intent. màx 5 min.
00:05 22.0 81.0 1004.8 0.0 0.0 0.0
00:15 21.8 81.0 1004.8 0.0 40.2 0.0
00:25 21.9 81.0 1004.6 0.0 40.2 0.0
00:35 21.5 81.0 1004.5 0.0 40.2 0.0
00:45 21.2 80.0 1004.6 0.0 40.2 0.0
00:55 21.2 80.0 1004.7 0.0 0.0 0.0
01:05 21.3 81.0 1004.7 0.0 0.0 0.0
01:15 21.3 80.0 1004.8 0.0 0.0 0.0
01:25 21.3 80.0 1005.0 0.0 0.0 0.0
01:35 21.1 80.0 1004.8 0.0 0.0 0.0
01:45 20.8 81.0 1004.8 0.0 0.0 0.0
01:55 20.7 81.0 1004.6 0.0 0.0 0.0
02:05 20.6 82.0 1004.6 0.0 0.0 0.0
02:15 20.8 82.0 1004.8 0.0 0.0 0.0
02:25 20.9 82.0 1004.9 0.0 0.0 0.0
02:35 20.9 81.0 1005.0 0.0 0.0 0.0
02:45 20.7 81.0 1004.9 0.0 0.0 0.0
02:55 20.6 81.0 1005.1 0.0 0.0 0.0
03:05 20.6 81.0 1005.3 0.0 0.0 0.0
03:15 20.3 81.0 1005.4 0.0 0.0 0.0
03:25 20.2 82.0 1005.6 0.0 0.0 0.0
03:35 20.2 82.0 1005.6 0.0 0.0 0.0
03:45 20.1 83.0 1005.6 0.0 0.0 0.0
03:55 20.1 83.0 1005.6 0.0 0.0 0.0
04:05 20.4 83.0 1005.5 0.0 0.0 0.0
04:15 20.7 82.0 1005.6 0.0 0.0 0.0
04:25 21.1 82.0 1005.6 0.0 0.0 0.0
04:35 21.4 82.0 1005.7 0.0 0.0 0.0
04:45 21.7 82.0 1005.7 0.0 0.0 0.0
04:55 21.8 82.0 1005.7 0.0 0.0 0.0
05:05 21.9 82.0 1005.8 0.0 0.0 0.0
05:15 22.1 82.0 1005.8 0.0 0.0 0.0
05:25 22.2 82.0 1005.8 0.0 0.0 0.0
05:35 22.3 82.0 1005.8 0.0 0.0 0.0
05:45 22.4 82.0 1005.9 0.0 0.0 0.0
05:55 22.6 82.0 1006.0 0.0 0.0 0.0
06:05 22.8 81.0 1006.1 0.0 0.0 0.0
06:15 22.8 80.0 1006.3 3.2 11.3 0.0
06:25 22.6 80.0 1006.4 6.4 11.3 0.0
06:35 22.6 81.0 1006.2 6.4 11.3 0.0
06:45 22.7 81.0 1006.3 3.2 11.3 0.0
06:55 23.0 81.0 1006.4 3.2 11.3 0.0
07:05 22.9 81.0 1006.2 3.2 11.3 0.0
07:15 22.3 81.0 1006.4 6.4 14.5 1.2
07:25 21.2 82.0 1006.5 11.3 25.7 1.2
07:35 20.8 85.0 1006.6 6.4 25.7 0.4
07:45 20.5 86.0 1006.8 0.0 25.7 0.0
Màxima 23.0 86.0 1006.8 11.3 40.2 1.2
Mínima 20 80.0 1004.5
Total 2.8